This is the latest recevied weather packets stored in our database for station/object KB3FKJ. If no packets are shown the sender has not sent any weather packets the latest 1 day(s).
| Time | Temp. | Humidity | Pressure | Rain* | Wind** | Luminosity | Snow |
|---|---|---|---|---|---|---|---|
| 1778069848 | 12.78° C | 95% | 1005.9 hPa | 3.05 mm | - | 39 W/m² | - |
| 1778068335 | 12.78° C | 95% | 1006.4 hPa | 1.27 mm | - | 15 W/m² | - |
| 1778067730 | 12.78° C | 95% | 1006.7 hPa | 1.78 mm | - | 14 W/m² | - |
| 1778066821 | 13.33° C | 95% | 1006.9 hPa | 1.78 mm | - | 6 W/m² | - |
| 1778065914 | 13.33° C | 94% | 1006.4 hPa | 0 mm | - | 7 W/m² | - |
| 1778065005 | 13.33° C | 93% | 1006.1 hPa | 0 mm | - | 8 W/m² | - |
| 1778064702 | 13.33° C | 93% | 1006.1 hPa | 0 mm | - | 8 W/m² | - |
| 1778064400 | 13.33° C | 92% | 1006 hPa | 0 mm | - | 7 W/m² | - |
| 1778063794 | 13.89° C | 91% | 1006 hPa | 1.78 mm | - | 4 W/m² | - |
| 1778062583 | 13.89° C | 87% | 1006.1 hPa | 0 mm | - | 1 W/m² | - |
| 1778062280 | 13.89° C | 86% | 1006 hPa | 0 mm | - | 0 W/m² | - |
| 1778061979 | 13.89° C | 87% | 1006.1 hPa | 0 mm | - | 0 W/m² | - |
| 1778061676 | 14.44° C | 86% | 1006.2 hPa | 0 mm | - | 0 W/m² | - |
| 1778061375 | 14.44° C | 85% | 1006.3 hPa | 0 mm | - | 0 W/m² | - |
| 1778061071 | 14.44° C | 85% | 1005.8 hPa | 0 mm | - | 0 W/m² | - |
| 1778060466 | 14.44° C | 84% | 1005.8 hPa | 0 mm | - | 0 W/m² | - |
| 1778059861 | 14.44° C | 82% | 1005.6 hPa | 0 mm | - | 0 W/m² | - |
| 1778058954 | 15° C | 79% | 1006.1 hPa | 0 mm | - | 0 W/m² | - |
| 1778058651 | 15° C | 78% | 1005.9 hPa | 0 mm | - | 0 W/m² | - |
| 1778058349 | 15.56° C | 76% | 1006 hPa | 0 mm | - | 0 W/m² | - |
| 1778058045 | 16.11° C | 73% | 1006.1 hPa | 0 mm | - | 0 W/m² | - |
| 1778057742 | 16.11° C | 72% | 1006 hPa | 0 mm | - | 0 W/m² | - |
| 1778057438 | 16.11° C | 71% | 1006.2 hPa | 0 mm | - | 0 W/m² | - |
| 1778055923 | 16.67° C | 68% | 1006.5 hPa | 0 mm | - | 0 W/m² | - |
| 1778055317 | 16.67° C | 68% | 1006.5 hPa | 0 mm | - | 0 W/m² | - |
* Rain latest hour (hover to see other rain measurements)
** Current wind speed in m/s (hover to see current wind gust speed)